Regional Weather Roundup
Issued by NWS

Home | Current Version | Previous Version | Text Only | Print | Product List | Glossary On
Versions: 1 2 3 4 5 6 7 8 9 10 11 12 13 14 15 16 17 18 19 20 21 22 23 24 25 26 27 28 29 30 31 32 33 34 35 36 37 38 39 40 41 42 43 44 45 46 47 48 49 50
000
ASUS43 KDTX 310210
RWRMI
MICHIGAN HOURLY REGIONAL WEATHER ROUNDUP
NATIONAL WEATHER SERVICE DETROIT/PONTIAC MI
1000 PM EDT WED JUL 30 2014

NOTE: "FAIR" INDICATES FEW OR NO CLOUDS BELOW 12,000 FEET WITH NO
SIGNIFICANT WEATHER AND/OR OBSTRUCTION TO VISIBILITY.

MIZ047>049-052>055-059>063-066>070-074>076-081>083-310300-
SOUTHEAST LOWER MICHIGAN

CITY           SKY/WX    TMP DP  RH WIND       PRES   REMARKS
ADRIAN         PTCLDY    64  60  87 CALM      30.02R
ALMA           PTCLDY    61  50  67 W3        29.99R
ANN ARBOR      FOG       58  56  93 CALM      30.01R VSB 3/4
BAD AXE        MOCLDY    59  55  84 S6        29.97S
DETROIT CITY   MOCLDY    68  59  73 CALM      29.99R
DETROIT        MOCLDY    63  59  87 S3        30.00R
FLINT          PTCLDY    64  58  80 S7        29.99R
GROSSE ILE     MOCLDY    64  61  88 CALM      29.99S
HILLSDALE      CLEAR     63  58  84 W3        30.02R
HOWELL         PTCLDY    61  58  92 SW3       30.00R

CITY           SKY/WX    TMP DP  RH WIND       PRES   REMARKS
JACKSON        CLEAR     62  57  83 CALM      30.01R
LAMBERTVILLE   CLEAR     61  59  94 CALM      30.02R FOG
LANSING        PTCLDY    63  51  65 W8        30.01R
LAPEER         NOT AVBL
MASON          CLEAR     62  56  79 CALM      30.00R
MONROE         PTCLDY    61  59  94 CALM      29.99R
MT. CLEMENS    CLOUDY    64  62  91 SW5       29.98R
PONTIAC        MOCLDY    63  58  83 CALM      29.99R
PORT HOPE        N/A     63  55  75 SE7       29.96R
PORT HURON     PTCLDY    57  57 100 CALM      29.99R
TRI CITIES     MOCLDY    68  51  54 NW10      29.97R
YPSILANTI      PTCLDY    64  58  80 CALM      30.01R
$$
MIZ043>046-050>051-056>058-064>065-071>073-077>080-310300-
SOUTHWEST LOWER MICHIGAN

CITY           SKY/WX    TMP DP  RH WIND       PRES   REMARKS
BATTLE CREEK   PTCLDY    62  55  77 W6        30.03R
BENTON HARBOR  CLEAR     55  54  96 CALM      30.03R
BIG RAPIDS     CLEAR     59  48  68 CALM      30.00R
COLDWATER      CLEAR     63  57  80 W5        30.02R
HOLLAND        CLEAR     56  52  86 W3        30.03R
GRAND RAPIDS   PTCLDY    66  49  54 W7        30.02R
KALAMAZOO      PTCLDY    61  54  77 NW6       30.03R
MARSHALL       CLEAR     60  54  79 W9        30.02R
MUSKEGON       PTCLDY    56  49  77 SW3       30.02R
$$
MIZ016>042-310300-
NORTHERN LOWER MICHIGAN

CITY           SKY/WX    TMP DP  RH WIND       PRES   REMARKS
ALPENA         CLOUDY    58  55  90 S3        29.98S
BEAVER ISLAND  CLOUDY    56  56  99 CALM      29.98R
BELLAIRE       CLOUDY    59  53  82 CALM      29.99R
CADILLAC       CLOUDY    57  49  74 CALM      30.00R
CHARLEVOIX     CLOUDY    60  55  83 SW3       30.01R
FRANKFORT      CLOUDY    60  53  76 CALM      29.98S
GAYLORD        LGT RAIN  59  49  69 VRB3      30.00R
GRAYLING       CLOUDY    57  49  73 W5        30.01R
HARBOR SPRINGS CLOUDY    59  56  88 CALM      29.98R
HOUGHTON LAKE  MOCLDY    60  49  66 CALM      30.00R
MANISTEE       PTCLDY    57  52  82 CALM      30.00R
OSCODA         CLOUDY    60  55  82 NE5       29.98R
PELLSTON       CLOUDY    58  56  93 CALM      29.98S
TRAVERSE CITY  CLOUDY    62  54  74 CALM      29.98R
$$
MIZ007>008-015-310300-
EASTERN UPPER MICHIGAN

CITY           SKY/WX    TMP DP  RH WIND       PRES   REMARKS
KINROSS        CLOUDY    55  55 100 S3        29.96S
MACKINAC ISLAN CLOUDY    58  55  88 W7        29.97S
NEWBERRY       CLOUDY    55  52  88 SW12      29.97R
S. S. MARIE    CLOUDY    56  52  86 CALM      29.96R
$$
MIZ004>006-011>014-085-310300-
CENTRAL UPPER MICHIGAN

CITY           SKY/WX    TMP DP  RH WIND       PRES   REMARKS
MANISTIQUE     FOG       52  52  99 CALM      29.97R VSB 3/4
ESCANABA       MOCLDY    61  54  77 CALM      29.96R
MENOMINEE      CLOUDY    59  55  88 CALM      29.96S
SAWYER-GWINN   CLEAR     55  52  88 SW3       29.97S
$$
MIZ001>003-009>011-084-310300-
WESTERN UPPER MICHIGAN

CITY           SKY/WX    TMP DP  RH WIND       PRES   REMARKS
IRON MOUNTAIN  MOCLDY    59  56  89 CALM      29.97R
HOUGHTON       MOCLDY    56  53  90 CALM      29.95R
COPPER HARBOR    N/A     62  52  69 W6        29.93S
$$

ABBREVIATIONS USED IN REMARKS
   TC - TEMPERATURE IN CELSIUS
  WCI - WIND CHILL INDEX
   HX - HEAT INDEX
  VSB - VISIBILITY



USA.gov is the U.S. government's official web portal to all federal, state and local government web resources and services.